Location: Martinez
(33.5170°N, 82.0760°W)
Time: 20:35:51
(UTC-05:00)

HST - Visible Passes

Search period start: 24 November 2014 00:00
Search period end: 04 December 2014 00:00
Orbit: 545 x 550 km, 28.5° (Epoch: 24 November)

Date Brightness Start Highest point End Pass type
(mag) Time Alt. Az. Time Alt. Az. Time Alt. Az.
24 Nov 3.6 04:24:03 15° ESE 04:24:03 15° ESE 04:25:06 10° ESE visible
24 Nov 1.8 05:59:35 15° WSW 06:02:41 41° S 06:06:37 10° ESE visible
25 Nov 3.8 04:17:07 13° ESE 04:17:07 13° ESE 04:17:42 10° ESE visible
25 Nov 1.7 05:52:39 20° WSW 05:55:08 41° S 05:59:04 10° ESE visible
26 Nov 4.1 04:10:08 11° ESE 04:10:08 11° ESE 04:10:15 10° ESE visible
26 Nov 1.7 05:45:40 25° SW 05:47:34 41° S 05:51:30 10° ESE visible
27 Nov 1.7 05:38:39 30° SW 05:40:00 39° S 05:43:54 10° ESE visible
28 Nov 1.7 05:31:36 33° SW 05:32:25 36° S 05:36:16 10° ESE visible
29 Nov 1.9 05:24:32 32° SSW 05:24:49 32° S 05:28:34 10° SE visible
30 Nov 2.2 05:17:28 28° S 05:17:28 28° S 05:20:49 10° SE visible
01 Dec 2.6 05:10:25 23° S 05:10:25 23° S 05:12:58 10° SE visible
02 Dec 3.0 05:03:22 17° S 05:03:22 17° S 05:05:01 10° SSE visible
03 Dec 3.5 04:56:20 12° SSE 04:56:20 12° SSE 04:56:53 10° SSE visible
